Location: Newark
(21.1200°N, 73.4000°E)
Time: 10:42:43
(UTC+00:00)

Vanguard 1 - Visible Passes

Search period start: 25 January 2020 00:00
Search period end: 04 February 2020 00:00
Orbit: 651 x 3833 km, 34.2° (Epoch: 24 January)

Date Brightness Start Highest point End Pass type
(mag) Time Alt. Az. Time Alt. Az. Time Alt. Az.
25 Jan 11.1 13:09:30 10° NW 13:12:44 18° N 13:16:32 10° NE visible
25 Jan 11.8 15:28:59 10° NW 15:30:38 20° NW 15:30:38 20° NW visible
25 Jan 13.9 20:31:32 15° S 20:31:32 15° S 20:34:44 10° SSE visible
26 Jan 11.1 13:30:45 10° NW 13:34:08 19° N 13:37:50 11° NE visible
26 Jan 12.2 15:49:43 10° NW 15:50:33 15° NW 15:50:33 15° NW visible
26 Jan 13.9 20:50:58 13° S 20:50:58 13° S 20:53:48 10° S visible
27 Jan 11.0 13:51:44 10° NW 13:55:29 22° NNE 13:57:45 18° NE visible
27 Jan 14.0 21:10:23 11° S 21:10:23 11° S 21:11:10 10° S visible
28 Jan 10.8 14:12:33 10° NW 14:16:44 28° NNE 14:17:43 26° NE visible
29 Jan 10.5 14:33:17 10° NW 14:37:44 37° NNE 14:37:44 37° NNE visible
30 Jan 10.3 14:54:00 10° NW 14:57:46 45° N 14:57:46 45° N visible
31 Jan 10.7 15:14:46 10° WNW 15:17:51 42° NW 15:17:51 42° NW visible
01 Feb 10.6 13:16:41 10° NW 13:20:23 25° NNE 13:24:47 10° ENE visible
01 Feb 11.3 15:35:38 10° WNW 15:38:00 31° WNW 15:38:00 31° WNW visible
02 Feb 10.2 13:37:25 10° NW 13:41:30 34° NNE 13:45:27 15° E visible
02 Feb 12.0 15:56:40 10° WNW 15:58:12 20° W 15:58:12 20° W visible
03 Feb 9.7 13:58:09 10° NW 14:02:31 50° NNE 14:05:42 24° E visible
03 Feb 12.5 16:17:59 10° W 16:18:27 12° W 16:18:27 12° W visible
